Weather History for Mitchell, SD

Change the Weather History Date:

Saturday, March 15, 2014

  Actual Average Record
Temperature  
Mean Temperature 31 °F 34 °F  
Max Temperature 39 °F 44 °F 75 °F (1935)
Min Temperature 23 °F 23 °F -16 °F (1897)
Degree Days  
Heating Degree Days 34 31  
Month to date heating degree days 559 510  
Since 1 July heating degree days 6509 6032  
Cooling Degree Days 0 0  
Month to date cooling degree days 0 0  
Year to date cooling degree days 0 0  
Moisture  
Dew Point 25 °F    
Average Humidity 72    
Maximum Humidity 92    
Minimum Humidity 52    
Precipitation  
Precipitation T in 0.03 in 1.33 in (1938)
Month to date precipitation 0.23 0.41  
Year to date precipitation 0.73 0.97  
Snow  
Snow T in - 5.60 in (2004)
Month to date snowfall 2.8  
Since 1 July snowfall 25.0  
Snow Depth 0.00 in    
Sea Level Pressure  
Sea Level Pressure 30.17 in    
Wind  
Wind Speed 14 mph (ENE)    
Max Wind Speed 22 mph    
Max Gust Speed 25 mph    
Visibility 8 miles    
Events Snow    
T = Trace of Precipitation, MM = Missing Value Source: NWS Daily Summary

Daily Weather History Graph

Daily Weather History Graph

Search for Another Location

Airport:

Trip Planner

Search our weather history database for the weather conditions in past years. The results will help you decide how hot, cold, wet, or windy it might be!

Date:

Astronomy

Mar. 15, 2014 Rise Set
Actual Time 7:44 AM CDT 7:38 PM CDT
Civil Twilight 7:15 AM CDT 8:07 PM CDT
Nautical Twilight 6:42 AM CDT 8:40 PM CDT
Astronomical Twilight 6:08 AM CDT 9:14 PM CDT
Moon 6:58 PM CDT (3/15) 6:58 AM CDT (3/15)
Length of Visible Light 12h 51m
Length of Day
11h 54m
Waxing Gibbous, 99% of the Moon is Illuminated
Mar 15
Waxing Gibbous
Mar 16
Full
Mar 23
Last Quarter
Mar 30
New
Apr 7
First Quarter

Hourly Weather History & Observations

Time (CDT) Temp. Windchill Dew Point Humidity Pressure Visibility Wind Dir Wind Speed Gust Speed Precip Events Conditions
1:53 AM 36.0 °F 29.0 °F 30.9 °F 82% 29.94 in 10.0 mi East 9.2 mph - N/A   Mostly Cloudy
2:53 AM 35.1 °F 26.4 °F 30.9 °F 85% 29.94 in 10.0 mi ESE 12.7 mph - N/A   Overcast
3:53 AM 34.0 °F 25.5 °F 30.0 °F 85% 29.91 in 10.0 mi East 11.5 mph - N/A   Unknown
4:53 AM 32.0 °F - 28.9 °F 88% 29.93 in - North - - N/A   Unknown
5:53 AM 30.9 °F 22.8 °F 28.9 °F 92% 29.93 in 10.0 mi ENE 9.2 mph - N/A   Clear
7:53 AM 30.9 °F - 24.1 °F 76% 29.96 in - North - - N/A   Unknown
8:53 AM 30.9 °F - 23.0 °F 72% 30.00 in - North - - N/A   Unknown
9:53 AM 34.0 °F 23.8 °F 19.9 °F 56% 30.04 in 10.0 mi East 16.1 mph - N/A   Overcast
10:53 AM 35.1 °F 24.1 °F 23.0 °F 61% 30.07 in 10.0 mi East 19.6 mph - N/A   Unknown
11:53 AM 36.0 °F 26.3 °F 24.1 °F 62% 30.11 in 10.0 mi ENE 16.1 mph - N/A   Partly Cloudy
12:53 PM 37.9 °F 28.2 °F 21.9 °F 53% 30.14 in 10.0 mi ENE 18.4 mph - N/A   Overcast
1:53 PM 35.1 °F 25.5 °F 25.0 °F 67% 30.17 in 10.0 mi ENE 15.0 mph - N/A   Overcast
2:53 PM 33.1 °F 22.6 °F 28.0 °F 82% 30.21 in 3.0 mi ENE 16.1 mph - 0.00 in Snow Light Snow
3:00 PM 33.1 °F 22.6 °F 28.9 °F 85% 30.17 in 1.8 mi NE 16.1 mph - 0.00 in Snow Light Snow
3:14 PM 33.1 °F - 28.9 °F 85% 30.17 in 2.0 mi North - - 0.00 in   Overcast
3:17 PM 34.0 °F - 28.9 °F 82% 30.17 in 3.0 mi North - - 0.00 in   Haze
3:32 PM 33.1 °F 23.4 °F 28.0 °F 82% 30.18 in 5.0 mi NE 13.8 mph - 0.00 in   Haze
3:53 PM 33.1 °F 22.6 °F 28.0 °F 82% 30.24 in 3.0 mi NE 16.1 mph - 0.00 in Snow Light Snow
4:53 PM 32.0 °F 21.2 °F 26.1 °F 79% 30.27 in 8.0 mi NE 16.1 mph - 0.00 in   Overcast
5:35 PM 32.0 °F 21.6 °F 24.1 °F 73% 30.24 in 10.0 mi NE 15.0 mph - N/A   Overcast
5:53 PM 30.9 °F 19.8 °F 23.0 °F 72% 30.31 in 10.0 mi NE 16.1 mph - N/A   Overcast
6:53 PM 30.9 °F 20.2 °F 19.9 °F 64% 30.35 in 10.0 mi NE 15.0 mph - 0.00 in   Overcast
7:53 PM 30.9 °F 21.2 °F 18.0 °F 59% 30.38 in 10.0 mi NNE 12.7 mph - N/A   Unknown
8:53 PM 28.9 °F - 19.9 °F 69% 30.40 in - North - - N/A   Unknown
9:53 PM 28.0 °F - 19.0 °F 69% 30.42 in - North - - N/A   Unknown
10:53 PM - - - N/A% 30.39 in - North - - N/A   Unknown
11:53 PM 25.0 °F - 18.0 °F 75% 30.46 in - North - - N/A   Unknown